loading
DOY 175 | 2024-06-23T12:16:02Z

THOR ABLESTAR DEB, 715

Orbit data source: Space-Track

THOR ABLESTAR DEB, 715 is space debris in LEO originally from a launch on Thu, 05 Dec 1963 UTC launched from the Air Force Western Test Range (AFWTR). Debris objects in space refer to the collection of defunct objects orbiting the Earth. Examples of debris include non-operational satellites, rocket bodies, and fragments generated from explosions, collisions, or faulty payload assembly.

Loading next visibility...
Loading greatness...
THOR ABLESTAR DEB details
NORAD ID715
COSPAR ID
1963-049E
Orbit
LEO
Last TLE update8 hours ago
Origin
Flag of USUSN BuWeps (US)
ManufacturerUnknown
BusUnknown
MotorUnknown
MassWet unknown, Dry mass unknown
Launch date (UTC)
1963-12-05 (61 years ago)
Launch vehicleUnknown
Launch site
Air Force Western Test Range (AFWTR)
Object type
Payload
Rocket body
Debris
Radar Cross SectionSmall (<0.1 m²)
Predictive object data (real-time)
Latitude-8.57737°
Longitude106.68084°
Altitude1,012.187 km
Speed7.334 km/s
Apparent Right ascension07h 48m 58s
Apparent Declination-29° 45' 07"
Sunlit
Object is in daylight
Predictive observer data (real-time)
Local Sidereal Time23:24:12
Azimuth94.216° ESE
Elevation-45.368°
Doppler factor1
Orbital elements
Apogee1,004.7 km
Perigee961.506 km
Semi-major axis7,361.24 km
Eccentricity0.0029339
Inclination89.9126°
RAAN84.5109°
Arg. of periapsis174.5904°
True anomaly356.47699°
Mean anomaly356.4976°
Mean motion3.4365 °/min
BSTAR0.00090929
Period104.76 mins
Definitive object data (Epoch: 2024-06-23T04:23:54.725Z)
Latitude8.86997°
Longitude-73.3166°
Altitude966.794 km
Speed7.38 km/s
True Right ascension17h 37m 59s
True Declination8° 49' 09"
Sunlit
Object was in full shadow at TLE epoch
TLE from 8 hours ago
0 THOR ABLESTAR DEB
1   715U 63049E   24175.18327229  .00000862  00000-0  90929-3 0  9996
2   715  89.9126  84.5109 0029339 174.5904 356.4976 13.73764307  4378
Epoch: 2024-06-23T04:23Z
No data available

THOR ABLESTAR DEB Visibility forecast

Observer location: 39.9160978°, -105.1181434, 0m alt.

THOR ABLESTAR DEB is not visible in the next 10 days
Span
Click to sort rows by Start time (UTC) header in descending order
Start Az.
Max El. time (UTC)
Max El. Az.
Max El.
End time (UTC)
End Az.